Regional Weather Roundup
Issued by NWS

Home | Current Version | Previous Version | Graphics & Text | Print | Product List | Glossary On
Versions: 1 2 3 4 5 6 7 8 9 10 11 12 13 14 15 16 17 18 19 20 21 22 23 24 25 26 27 28 29 30 31 32 33 34 35 36 37 38 39 40 41 42 43 44 45 46 47 48 49 50
000
ASUS43 KDMX 291408
RWRIA

WEATHER ROUNDUP FOR IOWA
NATIONAL WEATHER SERVICE DES MOINES IA
900 AM CDT MON AUG 29 2016

NOTE: "FAIR" INDICATES FEW OR NO CLOUDS BELOW 12,000 FEET WITH NO
SIGNIFICANT WEATHER AND/OR OBSTRUCTIONS TO VISIBILITY.

* - THESE STATIONS ARE NOT NWS STATIONS...THUS NOT UNDER NWS
QUALITY CONTROL.  THEY ALSO DO NOT REPORT WEATHER SUCH
AS PRECIPITATION OR FOG.

IAZ001>003-012>014-020>022-031>034-043>046-291500-
   NORTHWEST IOWA

CITY           SKY/WX    TMP DP  RH WIND       PRES   REMARKS
CARROLL *      MOSUNNY   72  70  94 CALM      30.21R
CHEROKEE *     SUNNY     72  70  92 S7        30.19R
DENISON *      CLOUDY    72  68  88 CALM      30.19R
LE MARS *      PTSUNNY   73  68  83 S8        30.19R
ORANGE CITY *  CLOUDY    70  66  88 S6        30.18S
SHELDON *      CLOUDY    68  68 100 S8        30.17R
SIOUX CITY     PTSUNNY   72  67  84 SE7       30.18R
SPENCER        MOSUNNY   73  67  81 S8        30.20R
STORM LAKE *   SUNNY     70  68  94 S6        30.21R
$$

IAZ055>058-069>071-079>083-090>094-291500-
   SOUTHWEST IOWA

CITY           SKY/WX    TMP DP  RH WIND       PRES   REMARKS
ATLANTIC *     HVY RAIN  70  68  94 N3        30.20S
AUDUBON *      LGT RAIN  70  68  94 SW3       30.22R
CLARINDA *       N/A     73  72  94 MISG      30.21S
COUNCIL BLFS * MOSUNNY   73  70  88 SE8       30.20S
CRESTON *      MOSUNNY   73  70  88 CALM      30.22R
HARLAN  *      CLOUDY    70  68  94 SW3       30.23S
LAMONI         SUNNY     76  71  85 CALM      30.20R
RED OAK *      PTSUNNY   73  72  94 CALM      30.20S
SHENANDOAH *   MOSUNNY   73 -35   1 NE6       30.20R
$$

IAZ047>049-059>061-072>074-084-291500-
   CENTRAL IOWA

CITY           SKY/WX    TMP DP  RH WIND       PRES   REMARKS
AMES           PTSUNNY   72  72 100 SE6       30.21R
ANKENY *         N/A    N/A N/A N/A MISG        N/A
BOONE *        CLOUDY    72  72 100 SE7       30.21R FOG
CHARITON *       N/A     75  73  94 MISG      30.20R
DES MOINES     CLOUDY    73  71  93 SE8       30.20R
GRINNELL*      CLOUDY    73  69  88 SE5       30.22S
KNOXVILLE *    CLOUDY    72  70  94 E3        30.19F
MARSHALLTOWN   CLOUDY    72  70  93 SE6       30.21R
NEWTON *       PTSUNNY   73  73 100 S5        30.20S
PELLA *        MOSUNNY  N/A N/A N/A SE3       30.21
PERRY *          N/A     73  72  99 E3        30.21R
$$

IAZ004>006-015-016-023>025-035-036-291500-
   NORTH CENTRAL IOWA

CITY           SKY/WX    TMP DP  RH WIND       PRES   REMARKS
ALGONA *       SUNNY     73  70  88 SE7       30.21R
ESTHERVILLE    PTSUNNY   70  68  93 S7        30.20R
FORT DODGE *   MOSUNNY   72  66  83 SE5       30.22R
MASON CITY     MOSUNNY   72  70  93 S5        30.24R
FOREST CITY *    N/A    N/A N/A N/A MISG        N/A
WEBSTER CITY * CLOUDY    73  73 100 S10       30.19S
IOWA FALLS *     N/A     74  71  90 S7        30.23R
$$

IAZ007>011-017>019-026>030-037>042-050>054-066-291500-
   NORTHEAST IOWA

CITY           SKY/WX    TMP DP  RH WIND       PRES   REMARKS
CEDAR RAPIDS   CLOUDY    71  71 100 E5        30.21R FOG
CHARLES CITY * MOSUNNY   72  72 100 SE6       30.23S
CLINTON *      MOSUNNY   73  71  93 E6        30.23S FOG
DECORAH *      CLOUDY    72  70  94 SE3       30.24R
DUBUQUE        CLOUDY    71  69  93 E5        30.24S FOG
MONTICELLO *   CLOUDY    72  70  94 E6        30.22S FOG
OELWEIN *      MOSUNNY   70  70 100 E6        30.24R
WATERLOO       CLOUDY    70  67  90 E6        30.21R
$$

IAZ064-065-067-068-078-291500-
   EAST CENTRAL IOWA

CITY           SKY/WX    TMP DP  RH WIND       PRES   REMARKS
DAVENPORT      CLOUDY    71  70  96 E8        30.22S FOG
IOWA CITY      CLOUDY    73  70  90 CALM      30.22S
MT. PLEASANT * MOSUNNY   79  76  91 SE5       30.21S HX  82
QUAD CITIES    CLOUDY    73  69  87 E6        30.21S
$$

IAZ062-063-075>077-085>089-095>099-291500-
   SOUTHEAST IOWA

CITY           SKY/WX    TMP DP  RH WIND       PRES   REMARKS
BURLINGTON     MOSUNNY   75  72  90 SE5       30.21R
FAIRFIELD *    PTSUNNY   73  70  88 CALM      30.21F
FORT MADISON * SUNNY     75  72  88 E3        30.22R
KEOKUK *       SUNNY     75  72  88 SE5       30.20S
OSKALOOSA *      N/A     70  69  98 E3        30.21F FOG
CENTERVILLE *    N/A     75  73  94 CALM      30.22S
OTTUMWA        LGT RAIN  71  70  96 SE5       30.20S
WASHINGTON *   CLOUDY    75  72  88 CALM      30.22R
$$

ABBREVIATIONS USED IN REMARKS
   TC - TEMPERATURES IN CELSIUS
  WCI - WIND CHILL INDEX
   HX - HEAT INDEX
  VSB - VISIBILITY
$$





USA.gov is the U.S. government's official web portal to all federal, state and local government web resources and services.